Regional Weather Roundup
Issued by NWS

Home | Current Version | Previous Version | Graphics & Text | Print | Product List | Glossary Off
Versions: 1 2 3 4 5 6 7 8 9 10 11 12 13 14 15 16 17 18 19 20 21 22 23 24 25 26 27 28 29 30 31 32 33 34 35 36 37 38 39 40 41 42 43 44 45 46

000
ASUS45 KCYS 280710
RWRWY

WYOMING REGIONAL WEATHER ROUNDUP
NATIONAL WEATHER SERVICE CHEYENNE WY
100 AM MDT FRI AUG 28 2015

NOTE:  "FAIR" INDICATES FEW OR NO CLOUDS BELOW 12,000 FEET
WITH NO SIGNIFICANT WEATHER AND/OR OBSTRUCTIONS TO VISIBILITY.

WYZ001-280800-
YELLOWSTONE NATIONAL PARK

CITY           SKY/WX    TMP DP  RH WIND       PRES   REMARKS
LK YELLOWSTONE   N/A     41  39  93 NW3       30.42F
W YELLOWSTONE  NOT AVBL

$$
WYZ002>013-054>058-071-098>099-280800-
NORTHERN WYOMING

CITY           SKY/WX    TMP DP  RH WIND       PRES   REMARKS
JACKSON        FAIR      54  45  71 CALM      30.34R
CODY           FAIR      57  45  62 W3        30.18S
GREYBULL       FAIR      63  52  67 S6        30.14F HAZE
WORLAND        FAIR      58  55  90 S6        30.15F FOG
SHERIDAN       FAIR      69  43  38 SE5       30.06F
BUFFALO        FAIR      66  40  38 W10       30.14F
GILLETTE       FAIR      66  47  50 SW14      30.09S
HULETT         FAIR      59  52  77 S10       30.08R
NEWCASTLE      FAIR      63  50  63 CALM      30.08S

$$
WYZ014>020-022>026-101>103-280800-
CENTRAL WYOMING

CITY           SKY/WX    TMP DP  RH WIND       PRES   REMARKS
BIG PINEY      FAIR      47  38  71 NW10      30.37S
PINEDALE       FAIR      46  45  93 CALM      30.38R
DUBOIS         FAIR      46  43  87 NW14      30.37F
LANDER         FAIR      57  47  69 VRB3      30.24F
RIVERTON       FAIR      56  51  84 W7        30.25F
CASPER         FAIR      62  43  49 SW8       30.21F
DOUGLAS        FAIR      65  46  50 NW9       30.16F

$$
WYZ021-027>030-104>119-280800-
SOUTHERN WYOMING

CITY           SKY/WX    TMP DP  RH WIND       PRES   REMARKS
EVANSTON       FAIR      55  39  54 SE7       30.38S
KEMMERER       FAIR      46  37  71 N10       30.40S
FORT BRIDGER   SUNNY     59  36  41 W7        30.40S
ROCK SPRINGS   FAIR      54  44  69 E7        30.37F
DIXON          FAIR      51  46  82 CALM      30.39R
RAWLINS        FAIR      56  44  64 N12       30.35R
SARATOGA       FAIR      55  46  71 NW10      30.38R
LARAMIE        FAIR      53  48  83 NW8G21    30.33R
CHEYENNE       LGT RAIN  58  54  86 NW12      30.25R
TORRINGTON     FAIR      63  55  75 CALM      30.07F
PINE BLUFFS    PTSUNNY   57  50  77 W7        30.17R

$$



USA.gov is the U.S. government's official web portal to all federal, state and local government web resources and services.